Content
SEND FEEDBACK

Daily
Averages
Monthly
Summary
United Kingdom

LEUCHARS, SCOTLAND


Home > Europe > United Kingdom > Scotland
Elevation: 39 feet     Latitude: 56 23N     Longitude: 002 52W

WEATHER
 
SELECT A DAY
Number of Records: 180,823;   Date Range: 7/1/96 - 9/30/14
 
SHARE

PRINT THIS DATA

[ ← Previous Day ]
WEATHER ALMANAC - JUNE 28, 2013
[ Next Day → ]
[ °C ]   °F
We're sorry. There is no daily almanac available for Leuchars, Scotland on June 28, 2013.
WEATHER BY HOUR - JUNE 28, 2013
[ °C ]   °F
Local TimeTemperatureDewpointHumidityBarometerVisibilityWind DirectionWind SpeedGust SpeedPrecipitationEventsConditions
12:50 AM51.8 °F50.0 °F94 %30.09 in6.2 miNNE (30°)1.2 mphOvercast
1:50 AM51.8 °F50.0 °F94 %30.06 in6.2 miENE (70°)1.2 mphMostly Cloudy
2:50 AM50.0 °F50.0 °F100 %30.04 in6.2 miNNE (20°)3.5 mphMostly Cloudy
3:50 AM52.0 °F51.0 °F95 %30.04 in12.0 miEast (100°)1.2 mphRainLight Rain
3:50 AM51.8 °F51.8 °F100 %30.04 in6.2 miEast (100°)1.2 mphOvercast
4:50 AM53.6 °F53.6 °F100 %30.01 in6.2 miWest (280°)2.3 mphRainLight Rain
5:50 AM55.4 °F55.4 °F100 %30.01 in6.2 miWest (270°)6.9 mphRainRain
6:50 AM55.4 °F55.4 °F100 %29.98 in6.2 miWest (260°)9.2 mphRainLight Rain
6:50 AM56.0 °F55.0 °F94 %30.00 in4.0 miWest (260°)9.2 mphRainLight Rain
7:50 AM57.2 °F55.4 °F94 %29.98 in6.2 miWest (260°)12.7 mphRainRain
8:50 AM57.2 °F55.4 °F94 %29.95 in6.2 miWest (260°)17.3 mphRainRain
9:50 AM57.0 °F55.0 °F92 %29.94 in9.0 miWest (260°)13.8 mphRainLight Rain
9:50 AM57.2 °F55.4 °F94 %29.92 in6.2 miWest (260°)13.8 mphRainLight Rain
10:50 AM57.2 °F55.4 °F94 %29.92 in6.2 miWSW (250°)11.5 mphRainLight Rain
11:50 AM59.0 °F55.4 °F88 %29.89 in6.2 miWSW (250°)13.8 mphRainLight Rain
12:50 PM59.0 °F55.4 °F88 %29.86 in6.2 miWSW (250°)17.3 mphMostly Cloudy
12:50 PM59.0 °F55.0 °F82 %29.87 in25.0 miWSW (250°)17.3 mphRainLight Rain
1:50 PM62.6 °F55.4 °F77 %29.86 in6.2 miWSW (250°)17.3 mphMostly Cloudy
2:50 PM66.2 °F55.4 °F68 %29.83 in6.2 miWest (270°)19.6 mphMostly Cloudy
3:50 PM69.0 °F54.0 °F49 %29.84 in31.0 miWest (270°)21.9 mphPartly Cloudy
3:50 PM68.0 °F53.6 °F60 %29.83 in6.2 miWest (270°)21.9 mphScattered Clouds
4:50 PM68.0 °F53.6 °F60 %29.83 in6.2 miWest (280°)20.7 mphMostly Cloudy
5:50 PM68.0 °F50.0 °F52 %29.86 in6.2 miWNW (300°)18.4 mph29.9 mphScattered Clouds
6:50 PM66.2 °F46.4 °F49 %29.86 in6.2 miWest (280°)19.6 mphPartly Cloudy
6:50 PM66.0 °F47.0 °F39 %29.88 in31.0 miWest (280°)19.6 mphScattered Clouds
7:50 PM62.6 °F46.4 °F55 %29.92 in6.2 miWNW (290°)15.0 mphScattered Clouds
8:50 PM60.8 °F42.8 °F52 %29.95 in6.2 miWNW (290°)15.0 mphMostly Cloudy
9:50 PM57.0 °F42.0 °F46 %29.98 in31.0 miWNW (290°)16.1 mphScattered Clouds
9:50 PM57.2 °F42.8 °F59 %29.98 in6.2 miWNW (290°)16.1 mphMostly Cloudy
10:50 PM55.4 °F41.0 °F58 %29.98 in6.2 miWNW (290°)16.1 mphMostly Cloudy
11:50 PM51.8 °F41.0 °F67 %30.01 in6.2 miWest (280°)11.5 mphMostly Cloudy
Hourly data recorded from EGQL, located miles away from Leuchars, Scotland







STORIES FROM OUR PARTNERS